Time,TemperatureF,DewpointF,PressureIn,WindDirection,WindDirectionDegrees,WindSpeedMPH,WindSpeedGustMPH,Humidity,HourlyPrecipIn,Conditions,Clouds,dailyrainin,SoftwareType,DateUTC
2013-06-17 00:01:00,69.3,64.6,29.85,North,359,1.0,5.0,85,0.00,,,0.00,meteohub,2013-06-17 04:01:00,
2013-06-17 00:06:00,69.1,64.8,29.85,North,359,1.0,5.0,86,0.00,,,0.00,meteohub,2013-06-17 04:06:00,
2013-06-17 00:11:00,69.1,64.8,29.85,NNW,347,1.0,4.0,86,0.00,,,0.00,meteohub,2013-06-17 04:11:00,
2013-06-17 00:16:00,68.7,64.4,29.85,NNW,347,0.0,4.0,86,0.00,,,0.00,meteohub,2013-06-17 04:16:00,
2013-06-17 00:21:00,68.5,64.2,29.85,NNW,347,0.0,4.0,86,0.00,,,0.00,meteohub,2013-06-17 04:21:00,
2013-06-17 00:26:00,68.4,64.4,29.85,NNW,347,0.0,2.0,87,0.00,,,0.00,meteohub,2013-06-17 04:26:00,
2013-06-17 00:31:00,68.0,64.0,29.85,NNW,347,0.0,1.0,87,0.00,,,0.00,meteohub,2013-06-17 04:31:00,
2013-06-17 00:36:00,67.6,63.7,29.85,NNW,347,0.0,0.0,87,0.00,,,0.00,meteohub,2013-06-17 04:36:00,
2013-06-17 00:41:00,67.5,63.9,29.85,NNW,347,0.0,0.0,88,0.00,,,0.00,meteohub,2013-06-17 04:41:00,
2013-06-17 00:46:00,67.1,63.5,29.85,NNW,347,0.0,0.0,88,0.00,,,0.00,meteohub,2013-06-17 04:46:00,
2013-06-17 00:51:00,66.7,63.3,29.85,NNW,347,0.0,0.0,89,0.00,,,0.00,meteohub,2013-06-17 04:51:00,
2013-06-17 00:56:00,66.6,63.1,29.85,NNW,347,0.0,0.0,89,0.00,,,0.00,meteohub,2013-06-17 04:56:00,
2013-06-17 01:01:00,66.2,63.1,29.85,NNW,347,1.0,0.0,90,0.00,,,0.00,meteohub,2013-06-17 05:01:00,
2013-06-17 01:06:00,65.8,63.1,29.85,NNW,347,0.0,1.0,91,0.00,,,0.00,meteohub,2013-06-17 05:06:00,
2013-06-17 01:11:00,65.7,63.0,29.86,NNW,347,0.0,1.0,91,0.00,,,0.00,meteohub,2013-06-17 05:11:00,
2013-06-17 01:16:00,65.5,62.8,29.86,NNW,347,0.0,1.0,91,0.00,,,0.00,meteohub,2013-06-17 05:16:00,
2013-06-17 01:21:00,65.5,63.1,29.86,NNW,347,0.0,1.0,92,0.00,,,0.00,meteohub,2013-06-17 05:21:00,
2013-06-17 01:26:00,65.1,62.8,29.86,NNW,347,0.0,0.0,92,0.00,,,0.00,meteohub,2013-06-17 05:26:00,
2013-06-17 01:31:00,65.1,62.8,29.86,NNW,347,0.0,0.0,92,0.00,,,0.00,meteohub,2013-06-17 05:31:00,
2013-06-17 01:36:00,64.9,62.6,29.86,NNW,347,0.0,0.0,92,0.00,,,0.00,meteohub,2013-06-17 05:36:00,
2013-06-17 01:41:00,64.8,62.4,29.86,NNW,347,0.0,2.0,92,0.00,,,0.00,meteohub,2013-06-17 05:41:00,
2013-06-17 01:46:00,64.6,62.4,29.86,NNW,347,0.0,2.0,93,0.00,,,0.00,meteohub,2013-06-17 05:46:00,
2013-06-17 01:51:00,64.8,62.6,29.86,NNW,347,0.0,2.0,93,0.00,,,0.00,meteohub,2013-06-17 05:51:00,
2013-06-17 01:56:00,64.8,62.6,29.86,NNW,347,0.0,2.0,93,0.00,,,0.00,meteohub,2013-06-17 05:56:00,
2013-06-17 02:02:00,64.4,62.4,29.86,NNW,347,0.0,2.0,93,0.00,,,0.00,meteohub,2013-06-17 06:02:00,
2013-06-17 02:07:00,64.2,62.2,29.87,NNW,347,0.0,1.0,93,0.00,,,0.00,meteohub,2013-06-17 06:07:00,
2013-06-17 02:12:00,64.2,62.2,29.86,NNW,347,0.0,1.0,93,0.00,,,0.00,meteohub,2013-06-17 06:12:00,
2013-06-17 02:17:00,64.0,62.1,29.86,NNW,347,0.0,2.0,93,0.00,,,0.00,meteohub,2013-06-17 06:17:00,
2013-06-17 02:22:00,63.9,62.1,29.87,NNW,347,0.0,2.0,94,0.00,,,0.00,meteohub,2013-06-17 06:22:00,
2013-06-17 02:27:00,63.9,62.1,29.87,NNW,347,0.0,1.0,94,0.00,,,0.00,meteohub,2013-06-17 06:27:00,
2013-06-17 02:32:00,63.9,62.1,29.87,NNW,347,0.0,0.0,94,0.00,,,0.00,meteohub,2013-06-17 06:32:00,
2013-06-17 02:37:00,63.7,61.9,29.87,NNW,347,0.0,0.0,94,0.00,,,0.00,meteohub,2013-06-17 06:37:00,
2013-06-17 02:42:00,63.7,61.9,29.87,NNW,347,0.0,0.0,94,0.00,,,0.00,meteohub,2013-06-17 06:42:00,
2013-06-17 02:47:00,63.7,61.9,29.87,NNW,347,2.0,2.0,94,0.00,,,0.00,meteohub,2013-06-17 06:47:00,
2013-06-17 02:52:00,63.7,61.9,29.87,NNW,347,1.0,2.0,94,0.00,,,0.00,meteohub,2013-06-17 06:52:00,
2013-06-17 02:57:00,63.9,62.1,29.87,NNW,347,0.0,2.0,94,0.00,,,0.00,meteohub,2013-06-17 06:57:00,
2013-06-17 03:02:00,63.9,62.1,29.87,NNW,347,0.0,2.0,94,0.00,,,0.00,meteohub,2013-06-17 07:02:00,
2013-06-17 03:07:00,63.7,61.9,29.87,NNW,347,1.0,2.0,94,0.00,,,0.00,meteohub,2013-06-17 07:07:00,
2013-06-17 03:12:00,63.3,61.5,29.88,NNW,347,0.0,1.0,94,0.00,,,0.00,meteohub,2013-06-17 07:12:00,
2013-06-17 03:17:00,63.3,61.5,29.88,NNW,347,1.0,2.0,94,0.00,,,0.00,meteohub,2013-06-17 07:17:00,
2013-06-17 03:22:00,63.1,61.3,29.88,NNW,347,0.0,2.0,94,0.00,,,0.00,meteohub,2013-06-17 07:22:00,
2013-06-17 03:27:00,63.3,61.5,29.88,NNW,347,0.0,2.0,94,0.00,,,0.00,meteohub,2013-06-17 07:27:00,
2013-06-17 03:32:00,63.1,61.3,29.88,NNW,347,1.0,2.0,94,0.00,,,0.00,meteohub,2013-06-17 07:32:00,
2013-06-17 03:37:00,63.0,61.2,29.88,NNW,347,1.0,2.0,94,0.00,,,0.00,meteohub,2013-06-17 07:37:00,
2013-06-17 03:42:00,62.6,60.8,29.88,NNW,347,1.0,2.0,94,0.00,,,0.00,meteohub,2013-06-17 07:42:00,
2013-06-17 03:47:00,62.6,61.2,29.88,NNW,347,1.0,2.0,95,0.00,,,0.00,meteohub,2013-06-17 07:47:00,
2013-06-17 03:52:00,62.4,61.0,29.88,NNW,347,1.0,2.0,95,0.00,,,0.00,meteohub,2013-06-17 07:52:00,
2013-06-17 03:57:00,62.2,60.4,29.88,NNW,347,1.0,2.0,94,0.00,,,0.00,meteohub,2013-06-17 07:57:00,
2013-06-17 04:02:00,62.1,60.3,29.88,NNW,347,0.0,2.0,94,0.00,,,0.00,meteohub,2013-06-17 08:02:00,
2013-06-17 04:07:00,62.1,60.6,29.88,NNW,347,2.0,2.0,95,0.00,,,0.00,meteohub,2013-06-17 08:07:00,
2013-06-17 04:12:00,62.1,60.6,29.88,NNW,347,0.0,2.0,95,0.00,,,0.00,meteohub,2013-06-17 08:12:00,
2013-06-17 04:17:00,62.1,60.6,29.88,NNW,347,0.0,2.0,95,0.00,,,0.00,meteohub,2013-06-17 08:17:00,
2013-06-17 04:22:00,62.1,60.6,29.88,NNW,347,0.0,2.0,95,0.00,,,0.00,meteohub,2013-06-17 08:22:00,
2013-06-17 04:27:00,61.9,60.4,29.88,NNW,347,0.0,2.0,95,0.00,,,0.00,meteohub,2013-06-17 08:27:00,
2013-06-17 04:32:00,61.9,60.4,29.88,NNW,347,0.0,1.0,95,0.00,,,0.00,meteohub,2013-06-17 08:32:00,
2013-06-17 04:37:00,61.7,60.3,29.88,NNW,347,0.0,1.0,95,0.00,,,0.00,meteohub,2013-06-17 08:37:00,
2013-06-17 04:42:00,61.5,60.1,29.88,NNW,347,0.0,0.0,95,0.00,,,0.00,meteohub,2013-06-17 08:42:00,
2013-06-17 04:47:00,61.5,60.1,29.88,NNW,347,0.0,0.0,95,0.00,,,0.00,meteohub,2013-06-17 08:47:00,
2013-06-17 04:52:00,61.3,59.9,29.88,NNW,347,0.0,0.0,95,0.00,,,0.00,meteohub,2013-06-17 08:52:00,
2013-06-17 04:57:00,61.3,59.9,29.88,NNW,347,0.0,0.0,95,0.00,,,0.00,meteohub,2013-06-17 08:57:00,
2013-06-17 05:02:00,61.2,59.7,29.89,NNW,347,0.0,0.0,95,0.00,,,0.00,meteohub,2013-06-17 09:02:00,
2013-06-17 05:07:00,61.2,59.7,29.89,NNW,347,0.0,0.0,95,0.00,,,0.00,meteohub,2013-06-17 09:07:00,
2013-06-17 05:12:00,61.3,59.9,29.89,NNW,347,1.0,1.0,95,0.00,,,0.00,meteohub,2013-06-17 09:12:00,
2013-06-17 05:17:00,61.3,59.9,29.90,NNW,347,0.0,2.0,95,0.00,,,0.00,meteohub,2013-06-17 09:17:00,
2013-06-17 05:22:00,61.5,60.1,29.90,NNW,347,1.0,2.0,95,0.00,,,0.00,meteohub,2013-06-17 09:22:00,
2013-06-17 05:27:00,61.7,60.3,29.90,NNW,347,0.0,2.0,95,0.00,,,0.00,meteohub,2013-06-17 09:27:00,
2013-06-17 05:32:00,61.7,60.3,29.90,NNW,347,0.0,1.0,95,0.00,,,0.00,meteohub,2013-06-17 09:32:00,
2013-06-17 05:37:00,61.5,60.1,29.90,NNW,347,0.0,1.0,95,0.00,,,0.00,meteohub,2013-06-17 09:37:00,
2013-06-17 05:42:00,61.7,60.3,29.90,NNW,347,0.0,1.0,95,0.00,,,0.00,meteohub,2013-06-17 09:42:00,
2013-06-17 05:47:00,61.9,60.8,29.90,NNW,347,0.0,1.0,96,0.00,,,0.00,meteohub,2013-06-17 09:47:00,
2013-06-17 05:52:00,62.1,61.0,29.89,NNW,347,0.0,0.0,96,0.00,,,0.00,meteohub,2013-06-17 09:52:00,
2013-06-17 05:57:00,62.4,61.3,29.89,NNW,347,0.0,1.0,96,0.00,,,0.00,meteohub,2013-06-17 09:57:00,
2013-06-17 06:02:00,62.6,61.5,29.89,NNW,347,2.0,2.0,96,0.00,,,0.00,meteohub,2013-06-17 10:02:00,
2013-06-17 06:07:00,62.8,61.7,29.89,NNW,347,0.0,2.0,96,0.00,,,0.00,meteohub,2013-06-17 10:07:00,
2013-06-17 06:12:00,63.1,62.1,29.90,NNW,347,1.0,3.0,96,0.00,,,0.00,meteohub,2013-06-17 10:12:00,
2013-06-17 06:17:00,63.3,62.2,29.90,NNW,347,0.0,3.0,96,0.00,,,0.00,meteohub,2013-06-17 10:17:00,
2013-06-17 06:22:00,63.7,62.6,29.91,NNW,343,3.0,3.0,96,0.00,,,0.00,meteohub,2013-06-17 10:22:00,
2013-06-17 06:27:00,64.6,63.5,29.91,NNW,327,2.0,4.0,96,0.00,,,0.00,meteohub,2013-06-17 10:27:00,
2013-06-17 06:32:00,64.8,63.7,29.90,North,354,1.0,4.0,96,0.00,,,0.00,meteohub,2013-06-17 10:32:00,
2013-06-17 06:37:00,64.9,63.9,29.91,NNW,335,1.0,4.0,96,0.00,,,0.00,meteohub,2013-06-17 10:37:00,
2013-06-17 06:42:00,65.1,64.0,29.90,NW,323,1.0,4.0,96,0.00,,,0.00,meteohub,2013-06-17 10:42:00,
2013-06-17 06:47:00,65.1,64.0,29.91,NW,324,2.0,4.0,96,0.00,,,0.00,meteohub,2013-06-17 10:47:00,
2013-06-17 06:52:00,65.3,64.0,29.91,NW,324,3.0,3.0,96,0.00,,,0.00,meteohub,2013-06-17 10:52:00,
2013-06-17 06:57:00,65.5,64.2,29.91,NW,316,2.0,5.0,96,0.00,,,0.00,meteohub,2013-06-17 10:57:00,
2013-06-17 07:02:00,65.5,64.2,29.91,NW,325,0.0,5.0,96,0.00,,,0.00,meteohub,2013-06-17 11:02:00,
2013-06-17 07:07:00,65.7,64.4,29.91,NW,325,2.0,5.0,96,0.00,,,0.00,meteohub,2013-06-17 11:07:00,
2013-06-17 07:12:00,65.7,64.4,29.91,NW,322,2.0,4.0,96,0.00,,,0.00,meteohub,2013-06-17 11:12:00,
2013-06-17 07:17:00,65.8,64.6,29.92,NNW,338,3.0,4.0,96,0.00,,,0.00,meteohub,2013-06-17 11:17:00,
2013-06-17 07:22:00,65.8,64.6,29.92,NNW,335,3.0,5.0,96,0.00,,,0.00,meteohub,2013-06-17 11:22:00,
2013-06-17 07:27:00,66.0,64.8,29.92,NNW,330,2.0,5.0,96,0.00,,,0.00,meteohub,2013-06-17 11:27:00,
2013-06-17 07:32:00,66.4,65.1,29.91,NNW,330,1.0,5.0,96,0.00,,,0.00,meteohub,2013-06-17 11:32:00,
2013-06-17 07:37:00,66.6,65.3,29.92,NNW,330,1.0,4.0,96,0.00,,,0.00,meteohub,2013-06-17 11:37:00,
2013-06-17 07:42:00,66.7,65.5,29.91,NNW,330,2.0,3.0,96,0.00,,,0.00,meteohub,2013-06-17 11:42:00,
2013-06-17 07:47:00,66.9,65.7,29.91,NNW,332,2.0,4.0,96,0.00,,,0.00,meteohub,2013-06-17 11:47:00,
2013-06-17 07:52:00,67.3,66.0,29.91,NW,314,2.0,4.0,96,0.00,,,0.00,meteohub,2013-06-17 11:52:00,
2013-06-17 07:57:00,67.6,66.4,29.92,NW,326,2.0,4.0,96,0.00,,,0.00,meteohub,2013-06-17 11:57:00,
2013-06-17 08:02:00,67.8,66.4,29.92,NNW,337,2.0,4.0,95,0.00,,,0.00,meteohub,2013-06-17 12:02:00,
2013-06-17 08:07:00,68.2,66.7,29.92,NNW,343,3.0,4.0,95,0.00,,,0.00,meteohub,2013-06-17 12:07:00,
2013-06-17 08:12:00,68.5,67.1,29.92,NW,321,0.0,4.0,95,0.00,,,0.00,meteohub,2013-06-17 12:12:00,
2013-06-17 08:17:00,68.7,66.9,29.91,NNW,337,2.0,4.0,94,0.00,,,0.00,meteohub,2013-06-17 12:17:00,
2013-06-17 08:22:00,69.3,67.5,29.91,NNW,337,1.0,4.0,94,0.00,,,0.00,meteohub,2013-06-17 12:22:00,
2013-06-17 08:27:00,69.6,67.5,29.91,NNW,337,0.0,4.0,93,0.00,,,0.00,meteohub,2013-06-17 12:27:00,
2013-06-17 08:32:00,70.2,67.6,29.91,NW,319,0.0,3.0,92,0.00,,,0.00,meteohub,2013-06-17 12:32:00,
2013-06-17 08:37:00,70.5,67.5,29.91,NW,325,3.0,4.0,90,0.00,,,0.00,meteohub,2013-06-17 12:37:00,
2013-06-17 08:42:00,71.1,67.3,29.92,NW,322,1.0,4.0,88,0.00,,,0.00,meteohub,2013-06-17 12:42:00,
2013-06-17 08:47:00,71.4,67.3,29.92,NW,304,3.0,4.0,87,0.00,,,0.00,meteohub,2013-06-17 12:47:00,
2013-06-17 08:52:00,72.1,67.6,29.91,West,274,0.0,4.0,86,0.00,,,0.00,meteohub,2013-06-17 12:52:00,
2013-06-17 08:57:00,72.9,67.8,29.91,WNW,297,0.0,5.0,84,0.00,,,0.00,meteohub,2013-06-17 12:57:00,
2013-06-17 09:02:00,73.8,68.0,29.91,NNE,33,5.0,5.0,82,0.00,,,0.00,meteohub,2013-06-17 13:02:00,
2013-06-17 09:07:00,74.5,67.8,29.91,NW,312,1.0,5.0,80,0.00,,,0.00,meteohub,2013-06-17 13:07:00,
2013-06-17 09:12:00,75.2,67.5,29.92,South,191,2.0,5.0,77,0.00,,,0.00,meteohub,2013-06-17 13:12:00,
2013-06-17 09:17:00,75.7,66.9,29.91,NNW,348,4.0,7.0,74,0.00,,,0.00,meteohub,2013-06-17 13:17:00,
2013-06-17 09:22:00,76.3,67.5,29.91,WNW,294,3.0,7.0,74,0.00,,,0.00,meteohub,2013-06-17 13:22:00,
2013-06-17 09:27:00,76.5,67.1,29.91,NNW,343,3.0,7.0,73,0.00,,,0.00,meteohub,2013-06-17 13:27:00,
2013-06-17 09:32:00,76.6,67.3,29.91,NNW,339,4.0,10.0,73,0.00,,,0.00,meteohub,2013-06-17 13:32:00,
2013-06-17 09:37:00,76.8,66.7,29.91,WNW,287,5.0,10.0,71,0.00,,,0.00,meteohub,2013-06-17 13:37:00,
2013-06-17 09:42:00,77.2,67.1,29.91,NW,319,4.0,10.0,71,0.00,,,0.00,meteohub,2013-06-17 13:42:00,
2013-06-17 09:47:00,77.4,67.3,29.91,NE,52,2.0,9.0,71,0.00,,,0.00,meteohub,2013-06-17 13:47:00,
2013-06-17 09:52:00,77.5,66.6,29.91,NNW,339,1.0,10.0,69,0.00,,,0.00,meteohub,2013-06-17 13:52:00,
2013-06-17 09:57:00,77.7,67.1,29.90,West,263,2.0,10.0,70,0.00,,,0.00,meteohub,2013-06-17 13:57:00,
2013-06-17 10:02:00,77.7,66.7,29.91,WNW,290,1.0,8.0,69,0.00,,,0.00,meteohub,2013-06-17 14:02:00,
2013-06-17 10:07:00,77.5,66.6,29.91,North,359,4.0,10.0,69,0.00,,,0.00,meteohub,2013-06-17 14:07:00,
2013-06-17 10:12:00,77.5,66.9,29.91,NNW,331,5.0,10.0,70,0.00,,,0.00,meteohub,2013-06-17 14:12:00,
2013-06-17 10:17:00,77.7,67.6,29.91,WSW,250,3.0,10.0,71,0.00,,,0.00,meteohub,2013-06-17 14:17:00,
2013-06-17 10:22:00,77.9,68.2,29.91,SSE,149,1.0,9.0,72,0.00,,,0.00,meteohub,2013-06-17 14:22:00,
2013-06-17 10:27:00,77.4,67.3,29.91,WNW,289,1.0,8.0,71,0.00,,,0.00,meteohub,2013-06-17 14:27:00,
2013-06-17 10:32:00,76.6,67.3,29.91,NNW,339,2.0,8.0,73,0.00,,,0.00,meteohub,2013-06-17 14:32:00,
2013-06-17 10:37:00,76.1,67.3,29.91,ENE,75,1.0,7.0,74,0.00,,,0.00,meteohub,2013-06-17 14:37:00,
2013-06-17 10:42:00,75.9,67.5,29.91,SSE,168,2.0,7.0,75,0.00,,,0.00,meteohub,2013-06-17 14:42:00,
2013-06-17 10:47:00,76.1,67.6,29.91,NNW,329,3.0,7.0,75,0.00,,,0.00,meteohub,2013-06-17 14:47:00,
2013-06-17 10:52:00,76.3,67.5,29.90,SW,231,0.0,7.0,74,0.00,,,0.00,meteohub,2013-06-17 14:52:00,
2013-06-17 10:57:00,76.6,67.3,29.90,WNW,295,3.0,9.0,73,0.00,,,0.00,meteohub,2013-06-17 14:57:00,
2013-06-17 11:02:00,76.6,67.3,29.91,SSW,202,2.0,9.0,73,0.00,,,0.00,meteohub,2013-06-17 15:02:00,
2013-06-17 11:07:00,76.6,67.3,29.91,North,359,5.0,9.0,73,0.00,,,0.00,meteohub,2013-06-17 15:07:00,
2013-06-17 11:12:00,76.6,67.6,29.90,North,354,0.0,7.0,74,0.00,,,0.00,meteohub,2013-06-17 15:12:00,
2013-06-17 11:17:00,76.8,67.5,29.90,East,93,3.0,7.0,73,0.00,,,0.00,meteohub,2013-06-17 15:17:00,
2013-06-17 11:22:00,76.3,67.5,29.91,West,276,4.0,7.0,74,0.00,,,0.00,meteohub,2013-06-17 15:22:00,
2013-06-17 11:27:00,75.4,66.9,29.90,West,271,3.0,9.0,75,0.00,,,0.00,meteohub,2013-06-17 15:27:00,
2013-06-17 11:32:00,74.7,65.8,29.90,North,350,4.0,9.0,74,0.00,,,0.00,meteohub,2013-06-17 15:32:00,
2013-06-17 11:37:00,73.8,65.7,29.90,ENE,64,3.0,7.0,76,0.00,,,0.00,meteohub,2013-06-17 15:37:00,
2013-06-17 11:42:00,73.4,66.2,29.90,SSW,212,0.0,7.0,78,0.00,,,0.00,meteohub,2013-06-17 15:42:00,
2013-06-17 11:47:00,73.4,66.2,29.90,SE,124,3.0,7.0,78,0.00,,,0.00,meteohub,2013-06-17 15:47:00,
2013-06-17 11:52:00,73.0,66.6,29.90,NE,39,2.0,7.0,80,0.00,,,0.00,meteohub,2013-06-17 15:52:00,
2013-06-17 11:57:00,73.0,65.8,29.90,NW,320,5.0,7.0,78,0.00,,,0.00,meteohub,2013-06-17 15:57:00,
2013-06-17 12:02:00,73.0,66.2,29.90,WNW,284,2.0,7.0,79,0.00,,,0.00,meteohub,2013-06-17 16:02:00,
2013-06-17 12:07:00,73.2,66.0,29.90,South,191,2.0,6.0,78,0.00,,,0.00,meteohub,2013-06-17 16:07:00,
2013-06-17 12:12:00,73.4,66.2,29.90,SSW,201,1.0,7.0,78,0.00,,,0.00,meteohub,2013-06-17 16:12:00,
2013-06-17 12:17:00,73.6,66.4,29.90,ENE,73,2.0,7.0,78,0.00,,,0.00,meteohub,2013-06-17 16:17:00,
2013-06-17 12:22:00,73.8,66.4,29.90,WNW,294,3.0,7.0,78,0.00,,,0.00,meteohub,2013-06-17 16:22:00,
2013-06-17 12:27:00,73.8,66.4,29.90,SSE,156,5.0,5.0,78,0.00,,,0.00,meteohub,2013-06-17 16:27:00,
2013-06-17 12:32:00,73.8,66.4,29.90,SE,125,1.0,7.0,78,0.00,,,0.00,meteohub,2013-06-17 16:32:00,
2013-06-17 12:37:00,73.8,66.4,29.91,ESE,118,1.0,7.0,78,0.00,,,0.00,meteohub,2013-06-17 16:37:00,
2013-06-17 12:42:00,73.8,66.9,29.91,West,276,4.0,8.0,79,0.00,,,0.00,meteohub,2013-06-17 16:42:00,
2013-06-17 12:47:00,74.1,67.1,29.91,NNE,12,2.0,8.0,79,0.00,,,0.00,meteohub,2013-06-17 16:47:00,
2013-06-17 12:52:00,73.9,66.2,29.91,NNE,19,4.0,7.0,77,0.00,,,0.00,meteohub,2013-06-17 16:52:00,
2013-06-17 12:57:00,73.6,66.4,29.91,WNW,292,1.0,9.0,78,0.00,,,0.00,meteohub,2013-06-17 16:57:00,
2013-06-17 13:02:00,73.0,65.8,29.91,WNW,295,3.0,9.0,78,0.00,,,0.00,meteohub,2013-06-17 17:02:00,
2013-06-17 13:07:00,73.0,66.6,29.91,NE,36,4.0,9.0,80,0.00,,,0.00,meteohub,2013-06-17 17:07:00,
2013-06-17 13:12:00,72.9,66.0,29.91,NNW,344,5.0,7.0,79,0.00,,,0.00,meteohub,2013-06-17 17:12:00,
2013-06-17 13:17:00,72.5,66.0,29.90,West,271,3.0,8.0,80,0.00,,,0.00,meteohub,2013-06-17 17:17:00,
2013-06-17 13:22:00,72.9,66.4,29.90,North,354,1.0,8.0,80,0.00,,,0.00,meteohub,2013-06-17 17:22:00,
2013-06-17 13:27:00,73.0,66.6,29.90,NW,322,2.0,8.0,80,0.00,,,0.00,meteohub,2013-06-17 17:27:00,
2013-06-17 13:32:00,73.2,66.4,29.91,South,185,4.0,8.0,79,0.00,,,0.00,meteohub,2013-06-17 17:32:00,
2013-06-17 13:37:00,73.4,66.6,29.90,West,259,2.0,6.0,79,0.00,,,0.00,meteohub,2013-06-17 17:37:00,
2013-06-17 13:42:00,73.6,66.7,29.90,WNW,295,2.0,6.0,79,0.00,,,0.00,meteohub,2013-06-17 17:42:00,
2013-06-17 13:47:00,73.8,67.3,29.89,North,10,4.0,7.0,80,0.00,,,0.00,meteohub,2013-06-17 17:47:00,
2013-06-17 13:52:00,74.1,67.1,29.89,SW,227,0.0,7.0,79,0.00,,,0.00,meteohub,2013-06-17 17:52:00,
2013-06-17 13:57:00,74.7,67.3,29.89,NW,308,2.0,7.0,78,0.00,,,0.00,meteohub,2013-06-17 17:57:00,
2013-06-17 14:02:00,74.7,67.3,29.89,ENE,64,2.0,7.0,78,0.00,,,0.00,meteohub,2013-06-17 18:02:00,
2013-06-17 14:07:00,74.8,67.5,29.89,WSW,249,1.0,9.0,78,0.00,,,0.00,meteohub,2013-06-17 18:07:00,
2013-06-17 14:12:00,75.2,67.5,29.89,WNW,295,1.0,9.0,77,0.00,,,0.00,meteohub,2013-06-17 18:12:00,
2013-06-17 14:17:00,75.4,67.6,29.89,NNE,31,0.0,10.0,77,0.00,,,0.00,meteohub,2013-06-17 18:17:00,
2013-06-17 14:22:00,75.6,67.5,29.89,NE,53,1.0,10.0,76,0.00,,,0.00,meteohub,2013-06-17 18:22:00,
2013-06-17 14:27:00,75.4,67.3,29.89,West,280,5.0,10.0,76,0.00,,,0.00,meteohub,2013-06-17 18:27:00,
2013-06-17 14:32:00,75.0,67.3,29.88,SE,127,1.0,8.0,77,0.00,,,0.00,meteohub,2013-06-17 18:32:00,
2013-06-17 14:37:00,75.4,67.6,29.89,North,4,3.0,8.0,77,0.00,,,0.00,meteohub,2013-06-17 18:37:00,
2013-06-17 14:42:00,75.2,67.1,29.89,East,90,1.0,8.0,76,0.00,,,0.00,meteohub,2013-06-17 18:42:00,
2013-06-17 14:47:00,74.8,66.7,29.89,NW,321,2.0,6.0,76,0.00,,,0.00,meteohub,2013-06-17 18:47:00,
2013-06-17 14:52:00,74.8,66.7,29.89,ESE,108,1.0,9.0,76,0.00,,,0.00,meteohub,2013-06-17 18:52:00,
2013-06-17 14:57:00,74.8,66.4,29.88,SSW,202,3.0,9.0,75,0.00,,,0.00,meteohub,2013-06-17 18:57:00,
2013-06-17 15:02:00,74.8,66.4,29.88,ESE,110,0.0,8.0,75,0.00,,,0.00,meteohub,2013-06-17 19:02:00,
2013-06-17 15:07:00,75.0,66.6,29.88,WNW,293,1.0,8.0,75,0.00,,,0.00,meteohub,2013-06-17 19:07:00,
2013-06-17 15:12:00,75.4,66.9,29.88,ESE,122,3.0,8.0,75,0.00,,,0.00,meteohub,2013-06-17 19:12:00,
2013-06-17 15:17:00,75.2,66.7,29.88,NNE,21,2.0,8.0,75,0.00,,,0.00,meteohub,2013-06-17 19:17:00,
2013-06-17 15:22:00,74.7,65.8,29.87,NNW,329,4.0,8.0,74,0.00,,,0.00,meteohub,2013-06-17 19:22:00,
2013-06-17 15:27:00,74.1,65.7,29.87,East,89,0.0,7.0,75,0.00,,,0.00,meteohub,2013-06-17 19:27:00,
2013-06-17 15:32:00,74.1,66.0,29.88,NW,319,2.0,9.0,76,0.00,,,0.00,meteohub,2013-06-17 19:32:00,
2013-06-17 15:37:00,74.5,66.4,29.88,NE,39,0.0,9.0,76,0.00,,,0.00,meteohub,2013-06-17 19:37:00,
2013-06-17 15:42:00,75.0,66.6,29.88,WSW,249,1.0,9.0,75,0.00,,,0.00,meteohub,2013-06-17 19:42:00,
2013-06-17 15:47:00,75.4,66.9,29.89,SE,133,2.0,8.0,75,0.00,,,0.00,meteohub,2013-06-17 19:47:00,
2013-06-17 15:52:00,75.6,67.1,29.89,NNW,335,5.0,7.0,75,0.00,,,0.00,meteohub,2013-06-17 19:52:00,
2013-06-17 15:57:00,75.7,66.9,29.89,NNW,328,6.0,9.0,74,0.00,,,0.00,meteohub,2013-06-17 19:57:00,
2013-06-17 16:02:00,76.3,66.9,29.90,NNW,348,6.0,10.0,73,0.00,,,0.00,meteohub,2013-06-17 20:02:00,
2013-06-17 16:07:00,76.3,66.6,29.89,SW,215,2.0,10.0,72,0.00,,,0.00,meteohub,2013-06-17 20:07:00,
2013-06-17 16:12:00,76.5,66.7,29.89,NW,309,1.0,10.0,72,0.00,,,0.00,meteohub,2013-06-17 20:12:00,
2013-06-17 16:17:00,76.5,67.1,29.88,NW,312,0.0,9.0,73,0.00,,,0.00,meteohub,2013-06-17 20:17:00,
2013-06-17 16:22:00,76.5,67.1,29.88,NW,314,1.0,6.0,73,0.00,,,0.00,meteohub,2013-06-17 20:22:00,
2013-06-17 16:27:00,76.3,66.6,29.89,NNW,332,4.0,4.0,72,0.00,,,0.00,meteohub,2013-06-17 20:27:00,
2013-06-17 16:32:00,75.7,66.4,29.88,ESE,123,1.0,8.0,73,0.00,,,0.00,meteohub,2013-06-17 20:32:00,
2013-06-17 16:37:00,75.6,66.7,29.88,NE,53,1.0,8.0,74,0.00,,,0.00,meteohub,2013-06-17 20:37:00,
2013-06-17 16:42:00,75.6,66.7,29.88,South,170,3.0,8.0,74,0.00,,,0.00,meteohub,2013-06-17 20:42:00,
2013-06-17 16:47:00,75.0,66.2,29.88,WNW,303,0.0,6.0,74,0.00,,,0.00,meteohub,2013-06-17 20:47:00,
2013-06-17 16:52:00,74.8,66.0,29.88,NE,41,4.0,6.0,74,0.00,,,0.00,meteohub,2013-06-17 20:52:00,
2013-06-17 16:57:00,74.5,65.7,29.88,North,4,1.0,6.0,74,0.00,,,0.00,meteohub,2013-06-17 20:57:00,
2013-06-17 17:02:00,74.3,65.8,29.88,WNW,291,1.0,5.0,75,0.00,,,0.00,meteohub,2013-06-17 21:02:00,
2013-06-17 17:07:00,74.5,66.0,29.88,West,280,2.0,5.0,75,0.00,,,0.00,meteohub,2013-06-17 21:07:00,
2013-06-17 17:12:00,74.8,66.0,29.88,West,278,0.0,6.0,74,0.00,,,0.00,meteohub,2013-06-17 21:12:00,
2013-06-17 17:17:00,75.0,66.2,29.88,NNW,337,6.0,6.0,74,0.00,,,0.00,meteohub,2013-06-17 21:17:00,
2013-06-17 17:22:00,74.8,66.0,29.88,West,261,1.0,6.0,74,0.00,,,0.00,meteohub,2013-06-17 21:22:00,
2013-06-17 17:27:00,74.1,65.3,29.88,NE,37,2.0,8.0,74,0.00,,,0.00,meteohub,2013-06-17 21:27:00,
2013-06-17 17:32:00,74.1,65.7,29.88,South,189,2.0,8.0,75,0.00,,,0.00,meteohub,2013-06-17 21:32:00,
2013-06-17 17:37:00,74.1,66.0,29.88,ESE,111,2.0,8.0,76,0.00,,,0.00,meteohub,2013-06-17 21:37:00,
2013-06-17 17:42:00,74.1,65.7,29.88,SW,220,2.0,6.0,75,0.00,,,0.00,meteohub,2013-06-17 21:42:00,
2013-06-17 17:47:00,73.9,65.5,29.88,SSW,200,1.0,7.0,75,0.00,,,0.00,meteohub,2013-06-17 21:47:00,
2013-06-17 17:52:00,73.8,65.3,29.88,North,4,3.0,7.0,75,0.00,,,0.00,meteohub,2013-06-17 21:52:00,
2013-06-17 17:57:00,73.2,65.1,29.88,East,79,0.0,7.0,76,0.00,,,0.00,meteohub,2013-06-17 21:57:00,
2013-06-17 18:02:00,73.0,65.5,29.88,SE,127,2.0,7.0,77,0.00,,,0.00,meteohub,2013-06-17 22:02:00,
2013-06-17 18:07:00,72.3,64.8,29.88,SSE,160,1.0,7.0,77,0.00,,,0.00,meteohub,2013-06-17 22:07:00,
2013-06-17 18:12:00,72.0,65.1,29.88,ENE,69,0.0,8.0,79,0.00,,,0.00,meteohub,2013-06-17 22:12:00,
2013-06-17 18:17:00,71.8,64.9,29.87,ESE,117,1.0,8.0,79,0.00,,,0.00,meteohub,2013-06-17 22:17:00,
2013-06-17 18:22:00,71.8,65.3,29.87,East,81,2.0,8.0,80,0.00,,,0.00,meteohub,2013-06-17 22:22:00,
2013-06-17 18:27:00,71.4,64.9,29.87,ESE,122,3.0,5.0,80,0.00,,,0.00,meteohub,2013-06-17 22:27:00,
2013-06-17 18:32:00,71.1,64.6,29.87,South,185,0.0,10.0,80,0.00,,,0.00,meteohub,2013-06-17 22:32:00,
2013-06-17 18:37:00,71.1,64.9,29.87,NNW,339,1.0,10.0,81,0.00,,,0.00,meteohub,2013-06-17 22:37:00,
2013-06-17 18:42:00,71.1,64.9,29.87,WNW,285,5.0,10.0,81,0.00,,,0.00,meteohub,2013-06-17 22:42:00,
2013-06-17 18:47:00,71.1,64.9,29.87,NW,311,0.0,7.0,81,0.00,,,0.00,meteohub,2013-06-17 22:47:00,
2013-06-17 18:52:00,70.9,64.8,29.87,West,263,4.0,7.0,81,0.00,,,0.00,meteohub,2013-06-17 22:52:00,
2013-06-17 18:57:00,70.5,64.4,29.88,SSW,197,1.0,7.0,81,0.00,,,0.00,meteohub,2013-06-17 22:57:00,
2013-06-17 19:02:00,70.5,64.8,29.88,ESE,102,0.0,7.0,82,0.00,,,0.00,meteohub,2013-06-17 23:02:00,
2013-06-17 19:07:00,70.5,64.8,29.88,NW,316,1.0,7.0,82,0.00,,,0.00,meteohub,2013-06-17 23:07:00,
2013-06-17 19:12:00,70.3,64.6,29.89,NNW,332,2.0,7.0,82,0.00,,,0.00,meteohub,2013-06-17 23:12:00,
2013-06-17 19:17:00,70.3,64.6,29.90,NW,315,0.0,7.0,82,0.00,,,0.00,meteohub,2013-06-17 23:17:00,
2013-06-17 19:22:00,70.3,64.6,29.89,NNW,342,1.0,7.0,82,0.00,,,0.00,meteohub,2013-06-17 23:22:00,
2013-06-17 19:27:00,70.5,64.8,29.90,NW,306,0.0,6.0,82,0.00,,,0.00,meteohub,2013-06-17 23:27:00,
2013-06-17 19:32:00,70.5,64.8,29.90,NNW,330,1.0,5.0,82,0.00,,,0.00,meteohub,2013-06-17 23:32:00,
2013-06-17 19:37:00,70.7,65.3,29.90,NNW,330,0.0,5.0,83,0.00,,,0.00,meteohub,2013-06-17 23:37:00,
2013-06-17 19:42:00,70.5,65.1,29.90,NNW,343,0.0,5.0,83,0.00,,,0.00,meteohub,2013-06-17 23:42:00,
2013-06-17 19:47:00,70.3,64.9,29.90,NNW,343,0.0,4.0,83,0.00,,,0.00,meteohub,2013-06-17 23:47:00,
2013-06-17 19:52:00,70.3,64.9,29.90,West,260,0.0,2.0,83,0.00,,,0.00,meteohub,2013-06-17 23:52:00,
2013-06-17 19:57:00,70.0,64.9,29.90,NNW,328,0.0,4.0,84,0.00,,,0.00,meteohub,2013-06-17 23:57:00,
2013-06-17 20:02:00,69.6,64.6,29.93,North,354,6.0,6.0,84,0.00,,,0.00,meteohub,2013-06-18 00:02:00,
2013-06-17 20:07:00,69.6,64.9,29.92,WNW,291,2.0,9.0,85,0.00,,,0.00,meteohub,2013-06-18 00:07:00,
2013-06-17 20:12:00,69.6,64.9,29.92,West,262,0.0,9.0,85,0.00,,,0.00,meteohub,2013-06-18 00:12:00,
2013-06-17 20:17:00,69.4,64.8,29.92,SW,228,0.0,9.0,85,0.00,,,0.00,meteohub,2013-06-18 00:17:00,
2013-06-17 20:22:00,69.4,65.1,29.92,SW,224,0.0,5.0,86,0.00,,,0.00,meteohub,2013-06-18 00:22:00,
2013-06-17 20:27:00,69.3,64.9,29.92,SW,224,0.0,3.0,86,0.00,,,0.00,meteohub,2013-06-18 00:27:00,
2013-06-17 20:32:00,69.1,64.8,29.92,SW,224,0.0,3.0,86,0.00,,,0.00,meteohub,2013-06-18 00:32:00,
2013-06-17 20:37:00,69.1,64.8,29.92,SW,224,0.0,3.0,86,0.00,,,0.00,meteohub,2013-06-18 00:37:00,
2013-06-17 20:42:00,68.9,64.9,29.91,SW,224,0.0,1.0,87,0.00,,,0.00,meteohub,2013-06-18 00:42:00,
2013-06-17 20:47:00,68.7,64.8,29.91,SW,224,0.0,1.0,87,0.00,,,0.00,meteohub,2013-06-18 00:47:00,
2013-06-17 20:52:00,68.5,64.6,29.91,SW,224,0.0,1.0,87,0.00,,,0.00,meteohub,2013-06-18 00:52:00,
2013-06-17 20:57:00,68.4,64.6,29.91,SW,224,1.0,1.0,88,0.00,,,0.00,meteohub,2013-06-18 00:57:00,
2013-06-17 21:02:00,68.2,64.4,29.91,SW,224,0.0,1.0,88,0.00,,,0.00,meteohub,2013-06-18 01:02:00,
2013-06-17 21:07:00,68.2,64.8,29.91,SW,224,0.0,1.0,89,0.00,,,0.00,meteohub,2013-06-18 01:07:00,
2013-06-17 21:12:00,68.0,64.6,29.91,SW,224,0.0,1.0,89,0.00,,,0.00,meteohub,2013-06-18 01:12:00,
2013-06-17 21:17:00,67.8,64.4,29.91,SW,224,0.0,2.0,89,0.00,,,0.00,meteohub,2013-06-18 01:17:00,
2013-06-17 21:22:00,67.6,64.2,29.91,SW,224,0.0,2.0,89,0.00,,,0.00,meteohub,2013-06-18 01:22:00,
2013-06-17 21:27:00,67.6,64.6,29.91,SW,224,0.0,1.0,90,0.00,,,0.00,meteohub,2013-06-18 01:27:00,
2013-06-17 21:32:00,67.5,64.4,29.91,SW,224,0.0,1.0,90,0.00,,,0.00,meteohub,2013-06-18 01:32:00,
2013-06-17 21:37:00,67.5,64.4,29.91,SW,224,0.0,1.0,90,0.00,,,0.00,meteohub,2013-06-18 01:37:00,
2013-06-17 21:42:00,67.5,64.4,29.92,SW,224,0.0,1.0,90,0.00,,,0.00,meteohub,2013-06-18 01:42:00,
2013-06-17 21:47:00,67.5,64.8,29.93,SW,224,1.0,0.0,91,0.00,,,0.00,meteohub,2013-06-18 01:47:00,
2013-06-17 21:52:00,67.5,64.8,29.93,SSW,201,1.0,1.0,91,0.00,,,0.00,meteohub,2013-06-18 01:52:00,
2013-06-17 21:57:00,67.5,64.8,29.94,SSW,204,0.0,2.0,91,0.00,,,0.00,meteohub,2013-06-18 01:57:00,
2013-06-17 22:02:00,67.5,64.4,29.93,NW,312,1.0,2.0,90,0.00,,,0.00,meteohub,2013-06-18 02:02:00,
2013-06-17 22:07:00,67.3,64.2,29.93,NW,312,0.0,3.0,90,0.00,,,0.00,meteohub,2013-06-18 02:07:00,
2013-06-17 22:12:00,67.3,64.2,29.93,NW,312,0.0,3.0,90,0.00,,,0.00,meteohub,2013-06-18 02:12:00,
2013-06-17 22:17:00,67.1,64.4,29.93,NW,312,0.0,3.0,91,0.00,,,0.00,meteohub,2013-06-18 02:17:00,
2013-06-17 22:22:00,66.9,64.2,29.93,NW,312,0.0,3.0,91,0.00,,,0.00,meteohub,2013-06-18 02:22:00,
2013-06-17 22:27:00,66.7,64.0,29.93,NW,312,0.0,3.0,91,0.00,,,0.00,meteohub,2013-06-18 02:27:00,
2013-06-17 22:32:00,66.7,64.0,29.93,NW,312,0.0,1.0,91,0.00,,,0.00,meteohub,2013-06-18 02:32:00,
2013-06-17 22:37:00,66.6,63.9,29.93,NW,312,0.0,0.0,91,0.00,,,0.00,meteohub,2013-06-18 02:37:00,
2013-06-17 22:42:00,66.6,63.9,29.93,NW,312,0.0,0.0,91,0.00,,,0.00,meteohub,2013-06-18 02:42:00,
2013-06-17 22:47:00,66.4,64.0,29.93,NW,312,0.0,0.0,92,0.00,,,0.00,meteohub,2013-06-18 02:47:00,
2013-06-17 22:52:00,66.2,63.9,29.93,NW,312,0.0,0.0,92,0.00,,,0.00,meteohub,2013-06-18 02:52:00,
2013-06-17 22:57:00,66.0,63.7,29.93,NW,312,1.0,0.0,92,0.00,,,0.00,meteohub,2013-06-18 02:57:00,
2013-06-17 23:02:00,65.8,63.5,29.93,NW,312,0.0,2.0,92,0.00,,,0.00,meteohub,2013-06-18 03:02:00,
2013-06-17 23:07:00,65.8,63.5,29.93,NW,312,1.0,2.0,92,0.00,,,0.00,meteohub,2013-06-18 03:07:00,
2013-06-17 23:12:00,65.7,63.3,29.93,NW,312,0.0,2.0,92,0.00,,,0.00,meteohub,2013-06-18 03:12:00,
2013-06-17 23:17:00,65.7,63.3,29.93,NW,312,0.0,2.0,92,0.00,,,0.00,meteohub,2013-06-18 03:17:00,
2013-06-17 23:22:00,65.5,63.3,29.93,NW,312,0.0,2.0,93,0.00,,,0.00,meteohub,2013-06-18 03:22:00,
2013-06-17 23:27:00,65.5,63.3,29.93,NW,312,1.0,1.0,93,0.00,,,0.00,meteohub,2013-06-18 03:27:00,
2013-06-17 23:32:00,65.3,63.1,29.92,NW,312,0.0,1.0,93,0.00,,,0.00,meteohub,2013-06-18 03:32:00,
2013-06-17 23:37:00,65.1,63.0,29.92,NW,312,1.0,2.0,93,0.00,,,0.00,meteohub,2013-06-18 03:37:00,
2013-06-17 23:42:00,65.1,63.0,29.92,NW,312,0.0,2.0,93,0.00,,,0.00,meteohub,2013-06-18 03:42:00,
2013-06-17 23:47:00,64.9,62.8,29.92,NW,312,0.0,2.0,93,0.00,,,0.00,meteohub,2013-06-18 03:47:00,
2013-06-17 23:52:00,65.1,63.0,29.92,NW,312,0.0,2.0,93,0.00,,,0.00,meteohub,2013-06-18 03:52:00,
2013-06-17 23:57:00,65.1,63.0,29.92,NW,312,2.0,2.0,93,0.00,,,0.00,meteohub,2013-06-18 03:57:00,